Regional Weather Roundup
Issued by NWS Jackson, KY

Home | Current Version | Previous Version | Graphics & Text | Print | Product List | Glossary On
Versions: 1 2 3 4 5 6 7 8 9 10 11 12 13 14 15 16 17 18 19 20 21 22 23 24 25 26 27 28 29 30 31 32 33 34 35 36 37 38 39 40 41 42 43 44 45 46 47 48 49 50
000
ASUS43 KJKL 290519
RWRJKL

EAST KENTUCKY HOURLY WEATHER ROUNDUP
NATIONAL WEATHER SERVICE JACKSON KY
1200 AM EST THU JAN 29 2015

NOTE: "FAIR" INDICATES FEW OR NO CLOUDS BELOW 12,000 FEET WITH
NO SIGNIFICANT WEATHER AND/OR OBSTRUCTIONS TO VISIBILITY.

* THESE REPORTS ARE NOT UNDER NWS QUALITY CONTROL AND MAY NOT
  REPORT WEATHER SUCH AS PRECIPITATION AND FOG.

KYZ079-080-083-085-087-088-110-112-115-119-120-290600
...EASTERN KENTUCKY...

CITY           SKY/WX    TMP DP  RH WIND       PRES   REMARKS
JACKSON        PTCLDY    31  18  58 VRB5      30.17F WCI  26
LONDON         PTCLDY    30  19  63 CALM      30.17F
SOMERSET*      MOCLDY    32  18  55 CALM      30.20S
MONTICELLO*    PTCLDY    37  18  46 S5        30.20S WCI  33
MIDDLESBORO*   PTCLDY    27  24  87 CALM      30.24S
HARLAN APT*    CLEAR     34  19  55 NE3       30.21S
BLACK MTN*       N/A     30   7  37 S13         N/A  WCI  20
PIKEVILLE APT* CLEAR     30  19  64 SE6       30.18F WCI  24
BIG SANDY*     CLEAR     29  20  71 CALM      30.20F
MOREHEAD APT*  PTCLDY    30  19  64 SE5       30.19F WCI  25
ASHLAND*       CLEAR     28  19  69 CALM      30.21F
$$

KYZ035-036-041-042-044-050-067-078-099-290600
...CENTRAL KENTUCKY...

CITY           SKY/WX    TMP DP  RH WIND       PRES   REMARKS
MT STERLING*   MOCLDY    32  21  64 SE6       30.18S WCI  26
FLEMING/MASON* CLOUDY    28  21  74 SE8       30.18F WCI  20
DANVILLE*      PTCLDY    32  21  64 S6        30.16S WCI  26
RICHMOND*      PTCLDY    36  19  51 S5        30.16S WCI  32
LEXINGTON      MOCLDY    32  21  64 SE13      30.14F WCI  22
FRANKFORT      MOCLDY    32  20  61 SE7       30.12F WCI  26
$$

KYZ091>093-OHZ055-061-077-WVZ005-015-034-035-042-290600
...SOUTHERN OHIO/WEST VIRGINIA...

CITY           SKY/WX    TMP DP  RH WIND       PRES   REMARKS
COVINGTON      CLOUDY    31  19  61 SE10      30.11F WCI  22
COLUMBUS       MOCLDY    25  14  63 SE9       30.20F WCI  15
DAYTON         CLOUDY    29  20  69 SE17      30.10F WCI  17
WILMINGTON     MOCLDY    28  18  66 SE13      30.14F WCI  17
HUNTINGTON     PTCLDY    25  18  74 E3        30.21F
CHARLESTON     PTCLDY    22  17  81 CALM      30.23F
PINEVILLE*     CLEAR     23  23  98 MISG      30.27F
BECKLEY        CLEAR     24  12  60 SE8       30.21S WCI  15
BLUEFIELD      CLEAR     27  14  58 CALM      30.21S
$$

VAZ002-007-008-TNZ017-027-036-066-071-290600
...SOUTHWEST VIRGINIA/EAST TENNESSEE...

CITY           SKY/WX    TMP DP  RH WIND       PRES   REMARKS
WISE*          CLEAR     32  16  51 SE6       30.18F WCI  26
JONESVILLE*    CLEAR     23  21  93 CALM      30.26S
ABINGDON*      CLEAR     31  21  66 E8        30.22F WCI  23
BRISTOL        PTCLDY    24  19  81 CALM      30.24F
KNOXVILLE      MOCLDY    31  21  66 NE3       30.22F
OAK RIDGE      PTCLDY    30  23  75 CALM      30.25F
CROSSVILLE     PTCLDY    35  10  35 S5        30.19R WCI  31
NASHVILLE      PTCLDY    42  28  57 S10       30.14F
$$

...KEY TO REMARKS...
VSB - VISIBILITY IN MILES
WCI - WIND CHILL INDEX
HX  - HEAT INDEX

$$



USA.gov is the U.S. government's official web portal to all federal, state and local government web resources and services.